Time,TemperatureF,DewpointF,PressureIn,WindDirection,WindDirectionDegrees,WindSpeedMPH,WindSpeedGustMPH,Humidity,HourlyPrecipIn,Conditions,Clouds,dailyrainin,SolarRadiationWatts/m^2,SoftwareType,DateUTC
2013-03-12 00:10:00,36.8,35.0,30.01,South,183,7.0,16.0,91,0.00,,,0.00,0,weatherlink.com 1.10,2013-03-12 04:10:00,
2013-03-12 00:25:00,37.0,35.0,30.02,SE,132,2.0,20.0,92,0.00,,,0.00,0,weatherlink.com 1.10,2013-03-12 04:25:00,
2013-03-12 00:40:00,37.1,35.0,30.01,SSW,212,10.0,15.0,92,0.00,,,0.00,0,weatherlink.com 1.10,2013-03-12 04:40:00,
2013-03-12 00:55:00,37.3,36.0,30.02,South,179,3.0,13.0,93,0.00,,,0.00,0,weatherlink.com 1.10,2013-03-12 04:55:00,
2013-03-12 01:10:00,37.5,36.0,30.02,SSW,207,4.0,11.0,93,0.00,,,0.00,0,weatherlink.com 1.10,2013-03-12 05:10:00,
2013-03-12 01:25:00,37.9,36.0,30.01,SSE,147,3.0,10.0,94,0.00,,,0.00,0,weatherlink.com 1.10,2013-03-12 05:25:00,
2013-03-12 01:40:00,38.1,37.0,30.01,SSW,202,2.0,12.0,94,0.00,,,0.00,0,weatherlink.com 1.10,2013-03-12 05:40:00,
2013-03-12 01:55:00,38.0,37.0,30.00,SSW,194,3.0,10.0,94,0.00,,,0.00,0,weatherlink.com 1.10,2013-03-12 05:55:00,
2013-03-12 02:10:00,38.1,37.0,29.99,SSW,198,7.0,8.0,94,0.00,,,0.00,0,weatherlink.com 1.10,2013-03-12 06:10:00,
2013-03-12 02:25:00,38.2,37.0,29.99,SSW,202,0.0,4.0,94,0.00,,,0.00,0,weatherlink.com 1.10,2013-03-12 06:25:00,
2013-03-12 02:40:00,38.3,37.0,29.99,SSW,211,1.0,8.0,95,0.00,,,0.00,0,weatherlink.com 1.10,2013-03-12 06:40:00,
2013-03-12 02:55:00,38.6,37.0,29.99,SSE,167,0.0,9.0,95,0.00,,,0.00,0,weatherlink.com 1.10,2013-03-12 06:55:00,
2013-03-12 03:10:00,38.9,38.0,29.97,South,173,4.0,12.0,95,0.00,,,0.00,0,weatherlink.com 1.10,2013-03-12 07:10:00,
2013-03-12 03:25:00,39.1,38.0,29.97,SE,142,7.0,11.0,96,0.00,,,0.00,0,weatherlink.com 1.10,2013-03-12 07:25:00,
2013-03-12 03:40:00,39.2,38.0,29.96,SSE,166,3.0,10.0,96,0.00,,,0.00,0,weatherlink.com 1.10,2013-03-12 07:40:00,
2013-03-12 03:55:00,39.1,38.0,29.95,SSE,161,6.0,8.0,96,0.00,,,0.00,0,weatherlink.com 1.10,2013-03-12 07:55:00,
2013-03-12 04:10:00,39.3,38.0,29.95,SSE,152,5.0,10.0,96,0.00,,,0.00,0,weatherlink.com 1.10,2013-03-12 08:10:00,
2013-03-12 04:25:00,39.4,39.0,29.94,SSE,162,6.0,13.0,97,0.00,,,0.00,0,weatherlink.com 1.10,2013-03-12 08:25:00,
2013-03-12 04:40:00,39.6,39.0,29.94,South,184,0.0,10.0,97,0.00,,,0.00,0,weatherlink.com 1.10,2013-03-12 08:40:00,
2013-03-12 04:55:00,39.4,39.0,29.93,South,184,1.0,10.0,97,0.00,,,0.00,0,weatherlink.com 1.10,2013-03-12 08:55:00,
2013-03-12 05:10:00,39.6,39.0,29.94,SSW,205,5.0,10.0,97,0.00,,,0.00,0,weatherlink.com 1.10,2013-03-12 09:10:00,
2013-03-12 05:25:00,40.0,39.0,29.94,SE,137,13.0,13.0,97,0.00,,,0.00,0,weatherlink.com 1.10,2013-03-12 09:25:00,
2013-03-12 05:40:00,40.2,39.0,29.93,SSW,197,6.0,18.0,97,0.00,,,0.00,0,weatherlink.com 1.10,2013-03-12 09:40:00,
2013-03-12 05:55:00,40.2,39.0,29.93,SSW,207,6.0,18.0,97,0.01,,,0.01,0,weatherlink.com 1.10,2013-03-12 09:55:00,
2013-03-12 06:12:00,40.2,39.0,29.93,SSW,199,5.0,15.0,97,0.01,,,0.01,0,weatherlink.com 1.10,2013-03-12 10:12:00,
2013-03-12 06:25:00,40.4,40.0,29.93,SSW,199,1.0,14.0,97,0.01,,,0.01,0,weatherlink.com 1.10,2013-03-12 10:25:00,
2013-03-12 06:41:00,40.4,40.0,29.92,South,191,6.0,11.0,97,0.01,,,0.01,0,weatherlink.com 1.10,2013-03-12 10:41:00,
2013-03-12 06:55:00,40.6,40.0,29.92,South,184,2.0,12.0,97,0.00,,,0.01,0,weatherlink.com 1.10,2013-03-12 10:55:00,
2013-03-12 07:11:00,40.9,40.0,29.92,SSW,204,2.0,15.0,97,0.00,,,0.01,0,weatherlink.com 1.10,2013-03-12 11:11:00,
2013-03-12 07:27:00,40.9,40.0,29.91,SE,144,9.0,14.0,97,0.00,,,0.01,0,weatherlink.com 1.10,2013-03-12 11:27:00,
2013-03-12 07:41:00,40.8,40.0,29.92,SE,146,5.0,12.0,97,0.00,,,0.01,0,weatherlink.com 1.10,2013-03-12 11:41:00,
2013-03-12 07:56:00,40.9,40.0,29.91,SSW,198,7.0,11.0,97,0.00,,,0.01,9,weatherlink.com 1.10,2013-03-12 11:56:00,
2013-03-12 08:11:00,41.0,40.0,29.91,South,184,7.0,14.0,97,0.00,,,0.01,5,weatherlink.com 1.10,2013-03-12 12:11:00,
2013-03-12 08:26:00,40.7,40.0,29.91,South,173,1.0,13.0,97,0.00,,,0.01,11,weatherlink.com 1.10,2013-03-12 12:26:00,
2013-03-12 08:41:00,40.8,40.0,29.91,South,171,7.0,13.0,97,0.00,,,0.01,16,weatherlink.com 1.10,2013-03-12 12:41:00,
2013-03-12 08:57:00,40.9,40.0,29.90,South,169,6.0,12.0,98,0.00,,,0.01,19,weatherlink.com 1.10,2013-03-12 12:57:00,
2013-03-12 09:12:00,41.1,41.0,29.90,South,175,6.0,14.0,98,0.00,,,0.01,18,weatherlink.com 1.10,2013-03-12 13:12:00,
2013-03-12 09:27:00,41.0,41.0,29.89,South,188,6.0,19.0,98,0.00,,,0.01,14,weatherlink.com 1.10,2013-03-12 13:27:00,
2013-03-12 09:42:00,40.9,40.0,29.89,South,178,5.0,15.0,97,0.00,,,0.01,26,weatherlink.com 1.10,2013-03-12 13:42:00,
2013-03-12 09:57:00,41.2,41.0,29.89,SSE,168,6.0,15.0,98,0.00,,,0.01,33,weatherlink.com 1.10,2013-03-12 13:57:00,
2013-03-12 10:13:00,41.1,41.0,29.88,SSE,157,7.0,19.0,98,0.01,,,0.02,42,weatherlink.com 1.10,2013-03-12 14:13:00,
2013-03-12 10:28:00,41.3,41.0,29.87,South,182,10.0,15.0,98,0.01,,,0.02,54,weatherlink.com 1.10,2013-03-12 14:28:00,
2013-03-12 10:44:00,41.5,41.0,29.88,SSE,163,10.0,19.0,98,0.02,,,0.03,46,weatherlink.com 1.10,2013-03-12 14:44:00,
2013-03-12 10:58:00,41.6,41.0,29.87,South,182,1.0,22.0,98,0.02,,,0.03,49,weatherlink.com 1.10,2013-03-12 14:58:00,
2013-03-12 11:14:00,41.8,41.0,29.86,SE,140,1.0,14.0,98,0.02,,,0.04,53,weatherlink.com 1.10,2013-03-12 15:14:00,
2013-03-12 11:28:00,41.8,41.0,29.86,SSE,153,2.0,16.0,98,0.02,,,0.04,58,weatherlink.com 1.10,2013-03-12 15:28:00,
2013-03-12 11:44:00,42.0,42.0,29.85,SSE,159,6.0,18.0,98,0.03,,,0.06,58,weatherlink.com 1.10,2013-03-12 15:44:00,
2013-03-12 11:59:00,41.9,41.0,29.84,SSE,149,7.0,20.0,98,0.04,,,0.07,54,weatherlink.com 1.10,2013-03-12 15:59:00,
2013-03-12 12:14:00,42.3,42.0,29.84,SE,126,5.0,18.0,98,0.03,,,0.07,72,weatherlink.com 1.10,2013-03-12 16:14:00,
2013-03-12 12:29:00,42.2,42.0,29.84,SSW,198,6.0,18.0,98,0.04,,,0.08,56,weatherlink.com 1.10,2013-03-12 16:29:00,
2013-03-12 12:44:00,42.3,42.0,29.83,SSW,200,6.0,14.0,98,0.02,,,0.08,63,weatherlink.com 1.10,2013-03-12 16:44:00,
2013-03-12 12:59:00,42.5,42.0,29.83,South,175,8.0,13.0,98,0.02,,,0.09,56,weatherlink.com 1.10,2013-03-12 16:59:00,
2013-03-12 13:14:00,42.6,42.0,29.83,SSE,155,4.0,14.0,98,0.03,,,0.10,62,weatherlink.com 1.10,2013-03-12 17:14:00,
2013-03-12 13:32:00,42.8,42.0,29.82,South,179,1.0,16.0,98,0.04,,,0.12,56,weatherlink.com 1.10,2013-03-12 17:32:00,
2013-03-12 13:46:00,42.8,42.0,29.81,South,183,6.0,15.0,98,0.05,,,0.13,49,weatherlink.com 1.10,2013-03-12 17:46:00,
2013-03-12 14:02:00,43.1,43.0,29.80,SSW,197,8.0,16.0,98,0.06,,,0.15,62,weatherlink.com 1.10,2013-03-12 18:02:00,
2013-03-12 14:17:00,43.0,43.0,29.79,South,175,11.0,11.0,98,0.06,,,0.17,46,weatherlink.com 1.10,2013-03-12 18:17:00,
2013-03-12 14:31:00,43.1,43.0,29.78,SSE,168,5.0,16.0,98,0.07,,,0.19,46,weatherlink.com 1.10,2013-03-12 18:31:00,
2013-03-12 14:46:00,43.1,43.0,29.77,SSW,200,5.0,15.0,98,0.08,,,0.21,46,weatherlink.com 1.10,2013-03-12 18:46:00,
2013-03-12 15:02:00,43.1,43.0,29.76,SSW,198,10.0,13.0,98,0.08,,,0.23,40,weatherlink.com 1.10,2013-03-12 19:02:00,
2013-03-12 15:16:00,43.3,43.0,29.75,SSW,194,7.0,13.0,98,0.09,,,0.26,39,weatherlink.com 1.10,2013-03-12 19:16:00,
2013-03-12 15:32:00,43.4,43.0,29.75,SSW,207,6.0,11.0,98,0.11,,,0.30,32,weatherlink.com 1.10,2013-03-12 19:32:00,
2013-03-12 15:46:00,43.4,43.0,29.74,WNW,296,1.0,12.0,98,0.13,,,0.34,28,weatherlink.com 1.10,2013-03-12 19:46:00,
2013-03-12 16:01:00,43.5,43.0,29.73,SSW,196,10.0,15.0,98,0.15,,,0.38,28,weatherlink.com 1.10,2013-03-12 20:01:00,
2013-03-12 16:17:00,43.8,43.0,29.73,South,190,6.0,13.0,98,0.14,,,0.41,19,weatherlink.com 1.10,2013-03-12 20:17:00,
2013-03-12 16:32:00,43.7,43.0,29.72,South,172,6.0,14.0,98,0.15,,,0.45,14,weatherlink.com 1.10,2013-03-12 20:32:00,
2013-03-12 16:47:00,43.8,43.0,29.71,South,177,5.0,12.0,98,0.18,,,0.53,11,weatherlink.com 1.10,2013-03-12 20:47:00,
2013-03-12 17:03:00,43.8,43.0,29.70,SSW,194,2.0,11.0,98,0.22,,,0.60,7,weatherlink.com 1.10,2013-03-12 21:03:00,
2013-03-12 17:17:00,43.9,43.0,29.69,South,188,5.0,12.0,98,0.29,,,0.70,9,weatherlink.com 1.10,2013-03-12 21:17:00,
2013-03-12 17:33:00,44.0,44.0,29.68,SSW,202,1.0,12.0,98,0.34,,,0.80,11,weatherlink.com 1.10,2013-03-12 21:33:00,
2013-03-12 17:47:00,44.1,44.0,29.67,South,171,6.0,8.0,98,0.34,,,0.87,39,weatherlink.com 1.10,2013-03-12 21:47:00,
2013-03-12 18:03:00,44.4,44.0,29.66,South,183,6.0,10.0,98,0.28,,,0.89,25,weatherlink.com 1.10,2013-03-12 22:03:00,
2013-03-12 18:18:00,44.2,44.0,29.67,South,178,2.0,11.0,98,0.25,,,0.96,5,weatherlink.com 1.10,2013-03-12 22:18:00,
2013-03-12 18:33:00,44.5,44.0,29.67,South,191,1.0,11.0,98,0.23,,,1.03,5,weatherlink.com 1.10,2013-03-12 22:33:00,
2013-03-12 18:48:00,44.1,44.0,29.66,SSW,192,0.0,7.0,98,0.21,,,1.08,0,weatherlink.com 1.10,2013-03-12 22:48:00,
2013-03-12 19:03:00,44.0,44.0,29.66,SSW,200,2.0,8.0,98,0.23,,,1.12,0,weatherlink.com 1.10,2013-03-12 23:03:00,
2013-03-12 19:19:00,43.6,43.0,29.66,SSW,198,0.0,8.0,98,0.17,,,1.14,0,weatherlink.com 1.10,2013-03-12 23:19:00,
2013-03-12 19:34:00,43.5,43.0,29.66,South,169,1.0,4.0,98,0.12,,,1.15,0,weatherlink.com 1.10,2013-03-12 23:34:00,
2013-03-12 19:49:00,43.4,43.0,29.66,South,173,2.0,5.0,98,0.07,,,1.16,0,weatherlink.com 1.10,2013-03-12 23:49:00,
2013-03-12 20:19:00,39.3,39.0,29.66,NE,38,1.0,9.0,98,0.02,,,1.16,0,weatherlink.com 1.10,2013-03-13 00:19:00,
2013-03-12 20:34:00,36.3,36.0,29.66,WSW,238,2.0,11.0,98,0.01,,,1.16,0,weatherlink.com 1.10,2013-03-13 00:34:00,
2013-03-12 20:49:00,35.3,35.0,29.66,NW,315,7.0,13.0,98,0.00,,,1.16,0,weatherlink.com 1.10,2013-03-13 00:49:00,
2013-03-12 21:04:00,35.4,35.0,29.67,SE,140,10.0,13.0,98,0.00,,,1.16,0,weatherlink.com 1.10,2013-03-13 01:04:00,
2013-03-12 21:19:00,35.9,35.0,29.69,WNW,297,0.0,8.0,98,0.00,,,1.16,0,weatherlink.com 1.10,2013-03-13 01:19:00,
2013-03-12 21:34:00,35.2,35.0,29.69,SSW,201,1.0,10.0,98,0.00,,,1.16,0,weatherlink.com 1.10,2013-03-13 01:34:00,
2013-03-12 22:04:00,34.7,34.0,29.71,ESE,104,2.0,14.0,97,0.00,,,1.16,0,weatherlink.com 1.10,2013-03-13 02:04:00,
2013-03-12 22:19:00,34.1,33.0,29.70,NW,315,6.0,14.0,97,0.00,,,1.16,0,weatherlink.com 1.10,2013-03-13 02:19:00,
2013-03-12 22:34:00,33.8,33.0,29.71,South,186,6.0,18.0,96,0.00,,,1.16,0,weatherlink.com 1.10,2013-03-13 02:34:00,
2013-03-12 22:49:00,33.4,32.0,29.73,WNW,293,0.0,18.0,95,0.00,,,1.16,0,weatherlink.com 1.10,2013-03-13 02:49:00,
2013-03-12 23:04:00,33.1,32.0,29.73,WNW,288,5.0,16.0,95,0.00,,,1.16,0,weatherlink.com 1.10,2013-03-13 03:04:00,
2013-03-12 23:19:00,33.0,32.0,29.72,SSE,153,3.0,15.0,95,0.00,,,1.16,0,weatherlink.com 1.10,2013-03-13 03:19:00,
2013-03-12 23:34:00,32.8,32.0,29.72,East,96,5.0,15.0,95,0.00,,,1.16,0,weatherlink.com 1.10,2013-03-13 03:34:00,
2013-03-12 23:49:00,32.5,31.0,29.72,North,5,8.0,16.0,94,0.00,,,1.16,0,weatherlink.com 1.10,2013-03-13 03:49:00,